Home   Weather   Bodrum   Past weeks

Flag for Turkey Past Weather in Bodrum, Turkey — Yesterday and Last 2 Weeks

Now
75 °F

Clear.


Feels Like: 77 °F
Forecast: 67 / 81 °F
Wind: 3 mph from Northeast

Location: Bodrum

Current Time: Sep 28, 2016 at 11:40:05 PM

Latest Report: Sep 28, 2016 at 9:00 PM


Visibility: 13 mi

Pressure: 30.14 "Hg

Humidity: 38%

Dew Point: 47 °F

Location of BodrumLocation

Past Weather in Bodrum — Graph

°F

Bodrum Temperature Yesterday

Maximum temperature yesterday: 84 °F (at 2:00 PM)
Minimum temperature yesterday: 68 °F (at 6:00 AM)
Average temperature yesterday: 77 °F

High & Low Weather Summary for the Past Weeks

 TemperatureHumidityPressure
High96 °F (Sep 17, 3:00 PM)79% (Sep 19, 9:00 AM)30.14 "Hg (Sep 19, 9:00 AM)
Low64 °F (Sep 25, 6:00 AM)15% (Sep 17, 2:00 PM)29.73 "Hg (Sep 20, 6:00 PM)
Average80 °F41%29.92 "Hg
* Reported Sep 13 9:00 PM — Sep 28 9:00 PM, Bodrum, Weather by CustomWeather, © 2016

Note: Actual official high and low records may vary slightly from our data, if they occured in-between our weather recording intervals... More about our weather records

Advertising

Bodrum Weather History for the Previous 24 Hours

Scroll right to see more
 ConditionsComfort  
Time TempWeatherWind HumidityBarometerVisibility
9:00 PM
Wed, Sep 28
75 °FClear.3 mph38%30.14 "Hg12 mi
8:00 PM76 °FClear.5 mph48%30.13 "Hg12 mi
7:00 PM78 °FPassing clouds.2 mph34%30.12 "Hg12 mi
6:00 PM83 °FSunny.7 mph31%30.11 "Hg12 mi
5:00 PM87 °FSunny.6 mph28%30.11 "Hg12 mi
4:00 PM86 °FSunny.7 mph29%30.10 "Hg12 mi
3:00 PM87 °FSunny.7 mph29%30.11 "Hg12 mi
2:00 PM85 °FSunny.7 mph30%30.12 "Hg12 mi
1:00 PM85 °FSunny.6 mph28%30.12 "Hg12 mi
12:00 PM82 °FSunny.6 mph30%30.13 "Hg12 mi
11:00 AM79 °FSunny.6 mph37%30.13 "Hg12 mi
10:00 AM78 °FSunny.5 mph42%30.12 "Hg12 mi
9:00 AM69 °FSunny.3 mph55%30.11 "Hg12 mi
6:00 AM65 °FClear.3 mph63%30.07 "Hg12 mi
3:00 AM69 °FClear.8 mph49%30.07 "Hg12 mi
12:00 AM72 °FClear.8 mph44%30.06 "Hg12 mi
Weather by CustomWeather, © 2016

See weather overviewHow to use our weather pages